Volver al catálogo

SL-12 DEB

ActivoHEO
NORAD 39801·DEBRIS·🇷🇺 Russia

Lanzado Sep 25, 2008 desde Baikonur Cosmodrome

Loading…

Próximos Pases (próximas 24 horas)

TLE

ActualizadoSource: Space-Track

Época: Sep 10, 2026, 03:31 UTC

1 39801U 08046N   26253.14689442  .00000654  00000-0  40043-3 0  9994
2 39801  65.0140  97.8180 5497004 230.1169  67.0629  4.71436433205230

Sigue SL-12 DEB en tiempo real con AllMySat

Download on the App Store